This is the latest recevied weather packets stored in our database for station/object SQ7RAF-15. If no packets are shown the sender has not sent any weather packets the latest 10 day(s).
| Time | Temp. | Humidity | Pressure | Rain* | Wind** | Luminosity | Snow |
|---|---|---|---|---|---|---|---|
| 1777527018 | 3.89° C | 63% | 1031.2 hPa | 0 mm | - | 132 W/m² | - |
| 1777526731 | 3.33° C | 66% | 1031.3 hPa | 0 mm | - | 129 W/m² | - |
| 1777526442 | 2.78° C | 67% | 1031.2 hPa | 0 mm | - | 118 W/m² | - |
| 1777526122 | 2.78° C | 69% | 1031.2 hPa | 0 mm | - | 119 W/m² | - |
| 1777525530 | 2.22° C | 73% | 1031.4 hPa | 0 mm | - | 96 W/m² | - |
| 1777525242 | 1.67° C | 75% | 1031.3 hPa | 0 mm | - | 83 W/m² | - |
| 1777524922 | 0.56° C | 78% | 1031.4 hPa | 0 mm | - | 80 W/m² | - |
| 1777524634 | 0° C | 80% | 1031.3 hPa | 0 mm | - | 71 W/m² | - |
| 1777524346 | -0.56° C | 82% | 1031.2 hPa | 0 mm | - | 65 W/m² | - |
| 1777524026 | -1.67° C | 84% | 1031.2 hPa | 0 mm | - | 50 W/m² | - |
| 1777523738 | -2.22° C | 85% | 1031.2 hPa | 0 mm | - | 43 W/m² | - |
| 1777523418 | -2.78° C | 86% | 1031.2 hPa | 0 mm | - | 33 W/m² | - |
| 1777523130 | -2.78° C | 87% | 1031.2 hPa | 0 mm | - | 24 W/m² | - |
| 1777522842 | -3.33° C | 88% | 1031.2 hPa | 0 mm | - | 28 W/m² | - |
| 1777522522 | -3.89° C | 88% | 1031.1 hPa | 0 mm | - | 23 W/m² | - |
| 1777522234 | -3.89° C | 88% | 1031.1 hPa | 0 mm | - | 18 W/m² | - |
| 1777521932 | -3.89° C | 88% | 1031.1 hPa | 0 mm | - | 13 W/m² | - |
| 1777521642 | -3.89° C | 88% | 1031 hPa | 0 mm | - | 11 W/m² | - |
| 1777521322 | -3.89° C | 88% | 1031 hPa | 0 mm | - | 9 W/m² | - |
| 1777521034 | -3.89° C | 89% | 1031 hPa | 0 mm | - | 8 W/m² | - |
| 1777520746 | -3.89° C | 89% | 1030.9 hPa | 0 mm | - | 6 W/m² | - |
| 1777520426 | -4.44° C | 89% | 1030.9 hPa | 0 mm | - | 5 W/m² | - |
| 1777520138 | -4.44° C | 89% | 1030.8 hPa | 0 mm | - | 3 W/m² | - |
| 1777519818 | -4.44° C | 89% | 1030.8 hPa | 0 mm | - | 2 W/m² | - |
| 1777519530 | -4.44° C | 89% | 1030.7 hPa | 0 mm | - | 1 W/m² | - |
* Rain latest hour (hover to see other rain measurements)
** Current wind speed in m/s (hover to see current wind gust speed)